Content
SEND FEEDBACK

Daily
Averages
Monthly
Summary
Spain

BILBAO, SPAIN


Home > Europe > Spain
Elevation: 112 feet     Latitude: 43 18N     Longitude: 002 56W

WEATHER
 
SELECT A DAY
Number of Records: 226,855;   Date Range: 7/1/96 - 8/30/14
 
SHARE

PRINT THIS DATA

[ ← Previous Day ]
WEATHER ALMANAC - JUNE 19, 2013
[ Next Day → ]
[ °C ]   °F
Weather ElementAverageHighLow
Temperature56.7 °F59 °F (12:00 pm)53.6 °F (5:30 am)
Dewpoint54.2 °F55.4 °F (2:00 pm)51.8 °F (5:30 am)
Humidity91.8 %100 % (6:00 am)82 % (12:00 pm)
Barometer30.00 in30.04 in (6:14 pm)29.95 in (5:30 am)
Wind Speed2.5 mph8.1 mph (11:00 am)
Weather ElementAverage
Visibility4.5 mi
Wind DirectionENE (69.5 °)

Weather ElementTotal
Precipitation---
Heating Degree Days8.7 (Base 65)
Growing Degree Days6.3 (Base 50)
Averaged from 43 records on June 19, 2013
WEATHER CONDITIONS BREAKOUT
WIND DIRECTION BREAKOUT
WEATHER BY HOUR - JUNE 19, 2013
[ °C ]   °F
Local TimeTemperatureDewpointHumidityBarometerVisibilityWind DirectionWind SpeedGust SpeedPrecipitationEventsConditions
5:30 AM53.6 °F51.8 °F94 %29.95 in3.7 miVariable2.3 mphRainLight Rain
6:00 AM53.6 °F53.6 °F100 %29.95 in3.1 miCalmRainLight Rain
6:30 AM53.6 °F53.6 °F100 %29.95 in3.1 miVariable1.2 mphRainLight Rain
7:00 AM53.6 °F53.6 °F100 %29.98 in3.1 miVariable2.3 mphRainRain
7:30 AM53.6 °F51.8 °F94 %29.95 in5.0 miVariable1.2 mphRainLight Rain
8:00 AM53.6 °F51.8 °F94 %29.98 in5.6 miCalmRainLight Rain
8:30 AM53.6 °F51.8 °F94 %29.95 in5.6 miVariable1.2 mphRainLight Rain
9:00 AM53.6 °F53.6 °F100 %29.95 in6.2 miCalmMostly Cloudy
9:30 AM55.4 °F51.8 °F88 %29.98 in6.2 miVariable1.2 mphMostly Cloudy
10:00 AM55.4 °F51.8 °F88 %29.98 in5.0 miVariable2.3 mphRainLight Rain
10:30 AM55.4 °F51.8 °F88 %29.95 in6.2 miWSW (250°)5.8 mphMostly Cloudy
11:00 AM57.2 °F53.6 °F88 %29.95 in6.2 miSW (230°)8.1 mphMostly Cloudy
11:30 AM57.2 °F53.6 °F88 %29.98 in6.2 miWSW (240°)8.1 mphMostly Cloudy
12:00 PM59.0 °F53.6 °F82 %29.98 in6.2 miVariable1.2 mphMostly Cloudy
12:30 PM59.0 °F53.6 °F82 %29.98 in6.2 miWSW (250°)4.6 mphMostly Cloudy
1:00 PM59.0 °F53.6 °F82 %29.98 in4.3 miWest (270°)3.5 mphRainLight Rain
1:30 PM59.0 °F53.6 °F82 %29.98 in6.2 miVariable1.2 mphMostly Cloudy
2:00 PM59.0 °F55.4 °F88 %29.98 in5.0 miCalmRainLight Rain
2:30 PM57.2 °F55.4 °F94 %30.01 in2.5 miNorth (350°)5.8 mphRainRain
3:00 PM57.2 °F55.4 °F94 %30.01 in4.3 miVariable2.3 mphRainRain
3:17 PM57.2 °F55.4 °F94 %30.01 in1.2 miCalmRainLight Rain
3:30 PM57.2 °F55.4 °F94 %30.01 in1.6 miCalmRainLight Rain
3:39 PM57.2 °F55.4 °F94 %30.01 in5.0 miVariable2.3 mphRainLight Rain
4:00 PM59.0 °F55.4 °F88 %30.01 in6.2 miSSW (200°)3.5 mphMostly Cloudy
4:09 PM59.0 °F55.4 °F88 %30.01 in1.9 miVariable1.2 mphRainRain
4:30 PM57.2 °F55.4 °F94 %30.01 in3.1 miWest (260°)3.5 mphRainLight Rain
5:00 PM57.2 °F55.4 °F94 %30.01 in1.9 miVariable2.3 mphRainLight Rain
5:30 PM57.2 °F55.4 °F94 %30.01 in2.5 miVariable2.3 mphRainLight Rain
6:00 PM59.0 °F55.4 °F88 %30.01 in6.2 miVariable2.3 mphRainLight Rain
6:14 PM57.2 °F55.4 °F94 %30.04 in2.2 miWNW (300°)3.5 mphRainLight Rain
6:30 PM57.2 °F55.4 °F94 %30.04 in6.2 miVariable2.3 mphScattered Clouds
7:00 PM59.0 °F55.4 °F88 %30.01 in6.2 miVariable2.3 mphMostly Cloudy
7:30 PM59.0 °F55.4 °F88 %30.01 in6.2 miVariable1.2 mphMostly Cloudy
8:00 PM57.2 °F53.6 °F88 %30.01 in6.2 miVariable2.3 mphRainLight Rain
8:21 PM57.2 °F53.6 °F88 %30.04 in1.2 miVariable2.3 mphRainLight Rain
8:30 PM57.2 °F53.6 °F88 %30.04 in1.6 miVariable2.3 mphRainLight Rain
8:35 PM57.2 °F55.4 °F94 %30.04 in3.7 miVariable1.2 mphRainLight Rain
9:00 PM57.2 °F55.4 °F94 %30.04 in6.2 miSE (140°)4.6 mphMostly Cloudy
9:30 PM57.2 °F55.4 °F94 %30.04 in6.2 miESE (120°)4.6 mphMostly Cloudy
10:00 PM55.4 °F55.4 °F100 %30.04 in4.3 miESE (120°)3.5 mphRainLight Rain
10:30 PM55.4 °F55.4 °F100 %30.04 in4.3 miVariable1.2 mphRainLight Rain
11:00 PM55.4 °F53.6 °F94 %30.04 in4.3 miWest (260°)3.5 mphRainLight Rain
11:30 PM55.4 °F53.6 °F94 %30.04 in4.3 miVariable2.3 mphRainLight Rain
Hourly data recorded from LEBB, located miles away from Bilbao, Spain







STORIES FROM OUR PARTNERS